Regional Weather Roundup
Issued by NWS Sioux Falls, SD

Home | Current Version | Previous Version | Text Only | Print | Product List | Glossary Off
Versions: 1 2 3 4 5 6 7 8 9 10 11 12 13 14 15 16 17 18 19 20 21 22 23 24 25 26 27 28 29 30 31 32 33 34 35 36 37 38 39 40 41 42 43 44 45 46 47 48 49 50

000
ASUS43 KFSD 290310
RWRFSD

WEATHER ROUNDUP FOR SE SOUTH DAKOTA/SW MINNESOTA/NW IOWA
NATIONAL WEATHER SERVICE SIOUX FALLS SD
1000 PM CDT MON JUL 28 2014

NOTE: "FAIR" INDICATES FEW OR NO CLOUDS BELOW 12,000 FEET WITH NO
SIGNIFICANT WEATHER AND OR OBSTRUCTIONS TO VISIBILITY.


SDZ038>040-050-052>070-290400-
SOUTHEAST SOUTH DAKOTA

CITY           SKY/WX    TMP DP  RH WIND       PRES   REMARKS
CHAMBERLAIN    CLEAR     64  53  66 E5        30.23R
HURON          CLEAR     62  52  69 E3        30.22R
MADISON        FAIR      55  55 100 N5        30.23S
MITCHELL       CLEAR     65  54  67 CALM      30.22R
SIOUX FALLS    CLEAR     61  54  77 N5        30.22R
WINNER         FAIR      66  50  56 E8        30.22S
YANKTON        CLEAR     63  54  72 NW5       30.21R
$$

MNZ071-072-080-081-089-090-097-098-290400-
SOUTHWEST MINNESOTA

CITY           SKY/WX    TMP DP  RH WIND       PRES   REMARKS
FAIRMONT       CLEAR     61  52  72 NW6       30.18S
JACKSON        CLEAR     61  54  77 NW6       30.21R
LUVERNE        CLEAR     64  54  68 N3        30.22R
MARSHALL       CLEAR     57  52  82 NW6       30.20R
MONTEVIDEO     CLEAR     63  54  72 NW3       30.21R
PIPESTONE      CLEAR     63  54  72 CALM      30.23R
REDWOOD FALLS  CLEAR     62  54  74 NW7       30.18R
TRACY          CLEAR     62  55  77 NW6       30.21S
WINDOM         CLEAR     59  54  82 NW7       30.20S
WORTHINGTON    CLEAR     57  54  88 NW7       30.22S
$$

IAZ001>003-012>014-020>022-031-032-NEZ013-014-SDZ071-290400-
NORTHWEST IOWA

CITY           SKY/WX    TMP DP  RH WIND       PRES   REMARKS
CHEROKEE       CLEAR     63  60  88 CALM      30.20R
DENISON        PTCLDY    64  61  88 CALM      30.17S
ESTHERVILLE    CLEAR     58  55  90 NW7       30.19R
LE MARS        CLEAR     63  59  88 N3        30.21R
ORANGE CITY    CLEAR     66  55  68 CALM      30.21R
SHELDON        CLEAR     59  57  94 NE5       30.20S
SIOUX CITY     CLEAR     65  56  72 N3        30.20R
SPENCER        CLEAR     58  54  86 NW6       30.20R
STORM LAKE     CLEAR     61  61 100 N6        30.21R
$$

ABBREVIATIONS USED IN REMARKS
   TC - TEMPERATURE IN CELSIUS
  WCI - WIND CHILL INDEX
   HX - HEAT INDEX
  VSB - VISIBILITY



USA.gov is the U.S. government's official web portal to all federal, state and local government web resources and services.